Погода в Горе

Россия / Псковская область     57°05′24″N   29°49′43″E
темп.,
°C
ветер,
м/с
пор.,
м/с
влажн.,
%
обл.,
%
осадки,
мм/ч
давл.,
гПа
погр.,
м
13 мая, чт
чт1300:00+14ююв1285100 0.0 101534
03:00+13всв41194100 0.2 1013520
06:00+12вюв6119133 0.2 1013820
09:00+12юв6107425 0.3 1014948
12:00+15юв695761 0.0 10131707
15:00+16вюв4961100 0.0 10111807
18:00+12вюв61291100 1.3 1010810
21:00+9вюв499690 1.6 1010419
14 мая, пт
пт1400:00+8юв399815 0.0 1010266
03:00+7юв389867 0.0 1010198
06:00+8вюв41295100 0.0 1010387
09:00+10юв5119293 0.0 1010617
12:00+14юв61283100 0.5 10101011
15:00+16ююв7127798 0.9 10091386
18:00+15юв4107538 0.1 1008719
21:00+11вюв36935 0.1 1008122
15 мая, сб
сб1500:00+10вюв38955 0.0 1007148
03:00+9вюв2596100 0.1 1006104
06:00+11юв249899 0.9 1005155
09:00+12ю1197100 2.3 100526
12:00+17зюз128064 0.4 1005710
15:00+19зюз237293 1.6 10041067
18:00+16зсз368992 3.5 1005487
21:00+13зюз228856 4.1 100626
16 мая, вс
вс1600:00+9з379418 0.0 1008144
03:00+8з229336 0.0 101018
06:00+8з119039 0.0 101110
09:00+14юв127563 0.0 1012357
12:00+18ююв2358100 0.0 10121135
15:00+18ю236682 0.4 1012751
18:00+19ююв2570100 0.4 1011684
21:00+14ююв2289100 0.7 101130
17 мая, пн
пн1700:00+12ююв36945 0.0 1012108
03:00+11юв389512 0.0 1011142
06:00+11юв3109572 0.0 1011230
09:00+16юв51180100 0.0 1010511
12:00+20ююв5964100 0.0 10091236
15:00+21ююв5968100 0.6 10081297
18:00+17ю4984100 2.6 1007286
21:00+14сз2499100 6.6 1006148